www.pogodaiklimat.ru

Погода и климат >> Архив погоды >> Беларусь >> Житковичи


ПОГОДА в Житковичах

АРХИВ ПОГОДЫ в Житковичах

Время (UTC), дата Ветер
(напр.,м/с)
 
Видим.   Явления Облачность Т
(С)
Тd
(С)
f
(%)
Тe
(С)
Тes
(С)
Комфортность P
(гПа)
Po
(гПа)
Тmin
(С)
Tmax
(С)
R
(мм)
R24
(мм)
S
(см)
06 12.09 штиль 0 4000 м дымка 3/0
[Ci fib]
+14.5 +9.7 73 +14 +17 тепло 1026.6 1010.2 +6.9
09 12.09 Ю 2 20 км 6/0
[Ac trans Ci fib]
+24.8 +8.4 35 +25 +32 комфорт 1025.9 1010.1
12 12.09 ЮЗ 2 20 км 9/0
[Ci]
+27.1 +6.7 27 +26 +32 жарко 1025.1 1009.5
15 12.09 ЮЗ 2 20 км 4/0
[Ci fib]
+26.1 +7.6 31 +26 +27 жарко 1024.4 1008.7
18 12.09 штиль 0 10 км 3/0
[Ac trans]
+18.0 +11.9 68 +18 +18 тепло 1025.1 1008.9 +27.6
21 12.09 штиль 0 10 км 4/0
[Ac trans]
+13.8 +11.3 85 +13 +13 тепло 1025.4 1009.0
00 13.09 штиль 0 10 км 4/0
[Ac trans]
+11.5 +9.5 88 +11 +11 по сезону 1025.9 1009.3
03 13.09 З 1 4000 м дымка 3/0
[Ac trans]
+9.7 +8.6 93 +9 +9 по сезону 1025.7 1009.0
06 13.09 З 1 10 км 6/0
[Ci fib]
+13.6 +10.5 82 +14 +16 тепло 1025.7 1009.3 +9.1
09 13.09 З 3 20 км 8/4 600 м
[Cu med, cong Ci sp]
+21.7 +11.5 52 +24 +27 комфорт 1025.0 1009.1
12 13.09 З 3 20 км 8/4 600 м
[Cb calv Ac trans Ci fib]
+21.2 +9.4 47 +23 +25 комфорт 1023.8 1007.8
15 13.09 З 2 10 км 8/5 600 м
[Sc diur, vesp Ac trans Ci fib]
+22.0 +9.2 44 +23 +24 комфорт 1022.1 1006.2
18 13.09 ЮЗ 2 10 км 9/0
[Ac trans]
+18.8 +10.6 59 +20 +20 тепло 1021.5 1005.4 +22.6
21 13.09 ЮЗ 2 10 км 9/0
[Ac trans]
+17.7 +11.3 66 +18 +18 тепло 1020.5 1004.4
00 14.09 СЗ 6-12
{12}
10 км 9/0
[Ci fib]
+14.5 +9.0 70 +13 +13 тепло 1022.4 1006.1
03 14.09 СЗ 3
{12}
10 км {ливн. осадки} 9/0
[Ac trans Ci fib]
+11.9 +9.8 87 +10 +10 по сезону 1023.9 1007.5
06 14.09 СЗ 2 10 км {ливн. осадки} 6/3 600 м
[Sc Ac trans]
+12.4 +9.4 82 +11 +13 по сезону 1025.5 1009.0 +11.5 0.0
09 14.09 СЗ 2 20 км 3/1 600 м
[Cu hum Ci fib]
+17.4 +5.8 46 +18 +25 тепло 1026.0 1009.7
12 14.09 С 2 20 км 9/3 600 м
[Cb cap Ci fib]
+18.7 +5.9 43 +20 +24 тепло 1025.4 1009.2
15 14.09 З 3 20 км {ливн. осадки} 6/1 600 м
[Cb cap Ac trans Ci fib]
+18.4 +5.8 44 +19 +19 тепло 1024.5 1008.3
18 14.09 З 1 10 км {ливн. осадки} 8/0
[Ci fib]
+13.3 +4.1 54 +14 +14 тепло 1025.9 1009.4 +19.6 0.0
21 14.09 З 1 10 км 8/0
[Ac trans Ci fib]
+10.4 +5.6 72 +10 +10 по сезону 1026.4 1009.8
00 15.09 З 1 10 км 8/0
[Ac trans Ci fib]
+8.0 +4.3 77 +7 +7 по сезону 1026.6 1009.8
03 15.09 ЮЗ 1 10 км 8/0
[Ac trans Ci fib]
+6.7 +5.1 90 +6 +6 прохладно 1025.8 1009.0
06 15.09 ЮЗ 2 10 км 4/0
[Ac trans Ci fib]
+8.6 +5.5 81 +7 +8 прохладно 1025.5 1008.8 +5.2
09 15.09 З 4 20 км 8/8 600 м
[Cb calv]
+16.6 +7.1 53 +16 +17 тепло 1023.0 1006.8
12 15.09 З 4-10
{13}
20 км 8/4 600 м
[Cu hum Ac trans Ci fib]
+18.8 +4.5 39 +19 +21 тепло 1019.6 1003.5
15 15.09 Ю 3
{10}
20 км 10/6 600 м
[Sc Ac trans]
+17.6 +4.8 43 +18 +18 тепло 1016.5 1000.4
18 15.09 ЮЗ 2 10 км 9/0
[Ac trans]
+14.4 +6.8 60 +14 +14 тепло 1014.3 998.1 +19.6
21 15.09 ЮЗ 2 10 км 8/0
[Ci fib]
+13.4 +6.2 62 +13 +13 тепло 1012.0 995.8
00 16.09 ЮЗ 3 10 км 9/9 600 м
[Sc]
+12.9 +6.4 65 +12 +12 тепло 1010.7 994.5
03 16.09 ЮЗ 3 4000 м слаб. ливневой дождь 10/8 600 м
[Cb cap Ac und]
+14.0 +9.0 72 +13 +13 тепло 1009.7 993.6
06 16.09 ЮЗ 3 10 км {ливн. осадки} 6/0
[Ac trans]
+15.1 +11.8 81 +14 +15 тепло 1009.4 993.3 +12.7 0.0
09 16.09 З 4
{11}
20 км 8/8 600 м
[Cu med, cong Ac trans]
+17.8 +7.8 52 +18 +19 тепло 1009.5 993.5
12 16.09 З 6-13
{12}
20 км 9/3 1000 м
[Cu med, cong Ac trans Ci fib]
+19.3 +4.0 36 +19 +20 тепло 1008.9 993.0
15 16.09 З 5-10
{13}
10 км 8/3 1000 м
[Cu med, cong Ac trans Ci fib]
+17.5 +4.1 41 +17 +17 тепло 1009.0 993.0
18 16.09 ЮЗ 2 10 км 8/0
[Ac trans]
+13.4 +5.3 58 +13 +13 по сезону 1009.5 993.3 +20.5
21 16.09 ЮЗ 2 10 км 8/0
[Ac trans]
+12.0 +5.3 64 +11 +11 по сезону 1009.2 992.8
00 17.09 З 2 10 км 6/0
[Ci fib]
+8.9 +4.8 75 +7 +7 по сезону 1008.7 992.3
03 17.09 З 2 10 км 4/0
[Ac trans]
+7.2 +4.5 83 +5 +5 прохладно 1008.7 992.2
06 17.09 ЮЗ 2 10 км 6/0
[Ac trans Ci fib]
+9.0 +5.0 76 +7 +9 по сезону 1008.8 992.4 +6.3
09 17.09 З 4 20 км 8/6 600 м
[Cu med, cong Ac trans Ci fib]
+14.2 +5.8 57 +13 +15 по сезону 1008.3 992.2
12 17.09 З 3
{10}
10 км 8/5 600 м
[Cu med, cong Ac trans Ci fib]
+16.0 +2.7 41 +16 +18 по сезону 1007.0 990.9
15 17.09 З 4 10 км 9/8 600 м
[Sc diur, vesp Ac trans Ci fib]
+15.7 +2.9 42 +15 +15 по сезону 1005.5 989.4
18 17.09 З 2 10 км 10/0
[Ac und]
+13.5 +5.0 56 +13 +13 по сезону 1004.1 987.9 +17.2
21 17.09 ЮЗ 3 10 км {ливн. осадки} 8/0
[Ac trans]
+10.8 +5.1 68 +9 +9 по сезону 1002.1 985.9
00 18.09 З 3 4000 м слаб. ливневой дождь 10/8 600 м
[Cb cap Ac und]
+8.9 +6.7 86 +6 +6 по сезону 1001.4 985.1
03 18.09 З 3
{11}
4000 м слаб. ливневой дождь 10/8 600 м
[Cb cap Ac und]
+6.3 +5.2 93 +3 +3 холодно 1001.0 984.6
06 18.09 З 4 10 км {ливн. осадки} 10/8 600 м
[Cb cap Ac und]
+7.1 +5.5 90 +3 +4 холодно 1002.4 985.9 +6.0 7
09 18.09 СЗ 4
{11}
4000 м слаб. ливневой дождь 10/8 600 м
[Cb cap Ac und]
+7.6 +6.1 90 +4 +4 очень
холодно
1004.4 987.9
12 18.09 СЗ 4
{11}
10 км в посл. час ливневой дождь 10/8 600 м
[Cb cap Ac und]
+9.9 +6.2 78 +7 +8 очень
холодно
1005.8 989.4
15 18.09 СЗ 4
{13}
10 км в посл. час ливневой дождь 10/8 600 м
[Cb cap Ac und]
+9.3 +7.4 88 +6 +6 очень
холодно
1007.8 991.4
18 18.09 З 1 10 км {ливн. осадки} 4/0
[Ac trans Ci fib]
+8.3 +6.4 88 +7 +7 прохладно 1011.4 994.9 +10.4 2
21 18.09 З 2 10 км в посл. час ливневой дождь 9/5 600 м
[Cb cap Ac trans]
+8.6 +6.4 86 +7 +7 прохладно 1012.9 996.4
00 19.09 З 2 10 км {ливн. осадки} 6/3 600 м
[Sc diur, vesp Ac trans]
+7.2 +5.6 90 +5 +5 прохладно 1014.0 997.4
03 19.09 З 2 4000 м слаб. ливневой дождь 10/8 600 м
[Cb cap Ac und]
+6.9 +5.8 93 +5 +5 прохладно 1014.7 998.0

 

Местоположение метеостанции Житковичи (Гомельская область, Беларусь): широта 52.22 долгота 27.87 высота над уровнем моря 137 м.

В архиве по умолчанию представлена погода в Житковичах за последнюю неделю. Архивные данные за месяц целиком и за предыдущие месяцы, начиная с января 2011 года, Вы можете получить, выбрав интересующий диапазон дат из раскрывающегося списка и нажав кнопку "Ввод!".


*Определитесь, кто Вы:
робот инопланетянин человек

Внимание! Время в таблицах - всемирное. Для получения местного времени необходимо прибавить поправку, которая равна 3 ч.

Смотрите также архив погоды в соседних городах и на ближайших метеорологических станциях:

Погода в Полесской (Брестская область, Беларусь) (80 км)
Погода в Октябре (Гомельская область, Беларусь) (82 км)
Погода в Мозыре (Гомельская область, Беларусь) (92 км)
Погода в Слуцке (Минская область, Беларусь) (93 км)
Погода в Олевске (Житомирская область, Украина) (112 км)
Погода в Ганцевичах (Брестская область, Беларусь) (113 км)
Погода в Овруче (Житомирская область, Украина) (118 км)
Погода в Пинске (Брестская область, Беларусь) (124 км)
Погода в Василевичах (Гомельская область, Беларусь) (134 км)
Погода в Сарнах (Ровенская область, Украина) (135 км)

Пояснения к столбцам:

Ветер - указаны скорость ветра в м/с - средняя за 10 мин, порывы в срок и между сроками (в фигурных скобках) и направление, откуда дует ветер: С - северный, СВ - северо-восточный, В - восточный, ЮВ - юго-восточный, Ю - южный, ЮЗ - юго-западный, З - западный, СЗ - северо-западный.
Видимость - горизонтальная дальность видимости в метрах или километрах. При видимости от 1 до 10 км при отсутствии осадков обычно наблюдается дымка, при ухудшении видимости до 1 км и менее - туман. В сухую погоду видимость может ухудшаться дымом, пылью или мглою.
Явления - указаны атмосферные явления, наблюдавшиеся в срок или в последний час перед сроком; фигурными скобками обозначены явления, наблюдавшиеся между сроками (за 1-3 часа до срока); квадратными скобками обозначены град или гололедные отложения с указанием их диаметра в мм.
Облачность - указаны через наклонную черту общая и нижняя облачность в баллах и высота нижней границы облаков в метрах; квадратными скобками обозначены формы облаков: Ci - перистые, Cs - перисто-слоистые, Cc - перисто-кучевые, Ac - высококучевые, As - высокослоистые, Sc - слоисто-кучевые, Ns - слоисто-дождевые, Cu - кучевые, Cb - кучево-дождевые. Подробнее классификацию облаков см. в Атласе облаков (PDF).
T - Температура воздуха - температура, измеренная на высоте 2 м над землей.
Td - Температура точки росы - температура, при понижении до которой содержащийся в воздухе водяной пар достигнет насыщения.
f - Относительная влажность воздуха - влажноcть воздуха, измеренная на высоте 2 м над землей.
Te - Эффективная температура - температура, которую ощущает одетый по сезону человек в тени. Характеристика душности погоды. При расчете учитывается влияние влажности воздуха и скорости ветра на теплоощущения человека.
Tes - Эффективная температура на солнце - температура, которую ощущает человек, с поправкой на солнечный нагрев. Характеристика знойности погоды. Зависит от высоты солнца над горизонтом, облачности и скорости ветра. Ночью, в пасмурную погоду, а также при ветре 12 м/с и более поправка равна нулю.
P - Атмосферное давление - приведенное к уровню моря атмосферное давление.
Po - Атмосферное давление - измеренное на уровне метеостанции атмосферное давление.
Tmin - Минимальная температура - минимум температуры воздуха на высоте 2 м над землей.
Tmax - Максимальная температура - максимум температуры воздуха на высоте 2 м над землей.
R - Количество осадков - Количество выпавших осадков за период времени, мм. При наведении курсора мыши на число - период времени, за который выпало указанное количество осадков.
R24 - Количество осадков - Количество выпавших осадков за 24 часа, мм.
S - Снежный покров - Высота снежного покрова, см. При наведении курсора мыши на число - состояние снежного покрова и степень покрытия местности в баллах.